Location: Alto Pass Reservoir
(37.5801°N, 89.3084°W)
Time: 20:33:06
(UTC+00:00)

Cosmos 1666 - Pass Details

Date: 08 December 2021
Orbit: 494 x 516 km, 82.5° (Epoch: 16 January)

Event Time Altitude Azimuth Distance (km) Brightness Sun altitude
Rises 23:17:33 0° 359° (N) 2,585 6.0 -7.8°
Reaches altitude 10° 23:19:44 10° 6° (N) 1,697 5.0 -8.2°
Maximum altitude 23:23:19 46° 80° (E) 672 2.8 -8.8°
Drops below altitude 10° 23:26:52 10° 155° (SSE) 1,686 5.3 -9.5°
Sets 23:29:01 0° 161° (SSE) 2,565 6.3 -9.9°
